MRDD weather

Don Diego Airport
Limón, Limon, Costa Rica

Public forecast

Using degrees Celsius for public forecast. Weather courtesy of forecast.io.

Closest aviation weather report (METAR) to Don Diego Airport

Report is more than 6 hours old.

Closest report is Cap Manuel Niño International Airport, 22.5 nm (41.6 km) ESE. Retrieved 2019/08/28 01:00 UTC (5 months ago):

MPCH 280100Z 00000KT 9999 FEW030 SCT080 Q1012 RMK HZ S-SW

Closest aviation forecast (TAF) to Don Diego Airport

Closest forecast is Limon International Airport, 25.8 nm (47.8 km) NNW. Retrieved 2020/01/28 18:21 UTC (4 hours ago):

TAF MRLM 281719Z 2818/2918 09006KT 9999 FEW020 SCT100 TX30/2820Z TN22/2911Z BECMG 2903/2905 25006KT TEMPO 2900/2912 DZ BKN020 BECMG 2914/2916 09007KT